Weather WX

World > North America > United States > Mississippi

Waco, Mississippi Regional Weather

Lat: 33.35N, Lon: 90.59W
Wx Zone: MSZ019
Warning FLW WEATHER ALERT - (More Info. Click Here) Warning
Feedback

Waco, MS Regional Weather

Expires:201906152300;;128635
ASUS44 KJAN 152210
RWRMS 

MISSISSIPPI HOURLY WEATHER ROUNDUP
NATIONAL WEATHER SERVICE JACKSON MS
500 PM CDT SAT JUN 15 2019

NOTE: "FAIR: INDICATES FEW OR NO CLOUDS BELOW 12,000 FEET WITH NO
SIGNIFICANT WEATHER AND/OR OBSTRUCTIONS TO VISIBILITY.


MSZ001>002-007>008-010>013-018>021-025>028-034>036-152300-
NORTHWEST MISSISSIPPI
  
CITY           SKY/WX    TMP DP  RH WIND       PRES   REMARKS
BATESVILLE     FAIR      88  70  55 S12       29.93F HX  92           
CLARKSDALE     SUNNY     95  70  43 S12G17    29.92F HX 101           
CLEVELAND      FAIR      91  70  50 S15       29.92F HX  96           
GREENWOOD      FAIR      90  70  51 S9        29.95F HX  95           
GREENVILLE     FAIR      92  70  48 S12       29.91F HX  97           
OLIVE BRANCH   PTSUNNY   88  68  51 SW13G18   29.93F HX  91           
OXFORD         FAIR      86  64  48 VRB7G16   29.97F                  
TUNICA           N/A     90  66  45 SW15      29.92F HX  92           
WINONA         FAIR      86  70  59 S7        29.97F HX  91           
$$


SKY/WX - Weather  TMP - Temperature  DP - Dew Point  RH - Relative Humidity
WIND - Wind Direction/Speed PRES - Barometric Pressure VSB - Visibility
WCI - Wind Chill Index E13G22 Wind - East Wind 13 mph/Gusts of 22 mph